| time (UTC) | temp F | wind direction | speed MPH | gust MPH | rain 1hr in | rain 24hr in | rain mn in | humidity % | barometer mb |
| 20260904051552 | 54 | 322 | 0.0 | 0.0 | 0.00 | 0.30 | 0.00 | 90 | 1000.7 |
| 20260904050150 | 54 | 315 | 0.0 | 0.0 | 0.00 | 0.30 | 0.00 | 90 | 1000.8 |
| 20260904044548 | 55 | 269 | 0.0 | 0.0 | 0.00 | 0.30 | 0.00 | 88 | 1001.0 |
| 20260904043049 | 55 | 269 | 0.0 | 3.0 | 0.00 | 0.30 | 0.00 | 87 | 1001.0 |
| 20260904041546 | 56 | 177 | 3.0 | 6.0 | 0.00 | 0.30 | 0.00 | 88 | 1001.0 |
| 20260904040045 | 55 | 184 | 2.0 | 4.0 | 0.00 | 0.30 | 0.00 | 90 | 1001.0 |
| 20260904034543 | 54 | 336 | 0.0 | 0.0 | 0.00 | 0.30 | 0.00 | 88 | 1001.2 |
| 20260904033041 | 55 | 336 | 0.0 | 2.0 | 0.00 | 0.30 | 0.00 | 87 | 1001.3 |
| 20260904031538 | 55 | 316 | 2.0 | 4.0 | 0.00 | 0.30 | 0.00 | 86 | 1001.5 |
| 20260904030036 | 56 | 322 | 3.0 | 4.0 | 0.00 | 0.30 | 0.00 | 85 | 1001.7 |
| 20260904024534 | 56 | 319 | 3.0 | 5.0 | 0.00 | 0.30 | 0.00 | 84 | 1001.9 |
| 20260904023031 | 57 | 314 | 2.0 | 7.0 | 0.00 | 0.30 | 0.00 | 84 | 1002.0 |
| 20260904021543 | 57 | 296 | 3.0 | 8.0 | 0.00 | 0.30 | 0.00 | 85 | 1002.0 |
| 20260904020027 | 57 | 270 | 5.0 | 9.0 | 0.00 | 0.30 | 0.00 | 85 | 1002.3 |
| 20260904014536 | 57 | 271 | 4.0 | 10.0 | 0.00 | 0.30 | 0.00 | 84 | 1002.2 |
| 20260904013027 | 57 | 288 | 7.0 | 13.0 | 0.00 | 0.30 | 0.00 | 83 | 1002.5 |
| 20260904011539 | 58 | 263 | 10.0 | 16.0 | 0.00 | 0.30 | 0.00 | 83 | 1002.5 |
| 20260904010025 | 58 | 257 | 9.0 | 16.0 | 0.00 | 0.30 | 0.00 | 84 | 1002.5 |
| 20260904004525 | 58 | 278 | 8.0 | 15.0 | 0.00 | 0.30 | 0.00 | 85 | 1002.5 |
| 20260904003025 | 58 | 308 | 9.0 | 18.0 | 0.00 | 0.30 | 0.00 | 84 | 1002.5 |
| 20260904001522 | 58 | 282 | 12.0 | 19.0 | 0.00 | 0.30 | 0.00 | 84 | 1002.6 |
| 20260904000021 | 58 | 254 | 11.0 | 18.0 | 0.00 | 0.30 | 0.00 | 84 | 1002.8 |
| 20260903234520 | 57 | 213 | 11.0 | 19.0 | 0.00 | 0.30 | 0.00 | 86 | 1002.7 |
| 20260903233017 | 57 | 252 | 9.0 | 18.0 | 0.00 | 0.30 | 0.00 | 86 | 1002.7 |
| 20260903231516 | 58 | 279 | 9.0 | 19.0 | 0.00 | 0.30 | 0.00 | 85 | 1002.6 |
| 20260903230016 | 58 | 284 | 11.0 | 21.0 | 0.00 | 0.30 | 0.00 | 85 | 1002.7 |
| 20260903224525 | 58 | 264 | 13.0 | 20.0 | 0.00 | 0.30 | 0.00 | 86 | 1002.7 |
| 20260903223014 | 58 | 283 | 10.0 | 20.0 | 0.00 | 0.30 | 0.00 | 87 | 1002.6 |
| 20260903221511 | 58 | 246 | 12.0 | 20.0 | 0.00 | 0.30 | 0.00 | 87 | 1002.4 |
| 20260903220018 | 58 | 271 | 11.0 | 21.0 | 0.00 | 0.30 | 0.00 | 87 | 1002.3 |
| 20260903214510 | 58 | 254 | 12.0 | 19.0 | 0.00 | 0.30 | 0.30 | 88 | 1002.2 |
| 20260903213008 | 57 | 267 | 12.0 | 21.0 | 0.00 | 0.30 | 0.30 | 89 | 1002.2 |
| 20260903211506 | 57 | 296 | 14.0 | 20.0 | 0.00 | 0.30 | 0.30 | 90 | 1002.0 |
| 20260903210005 | 57 | 309 | 11.0 | 20.0 | 0.00 | 0.30 | 0.30 | 92 | 1001.9 |
| 20260903204510 | 58 | 324 | 7.0 | 14.0 | 0.00 | 0.30 | 0.30 | 92 | 1001.7 |
| 20260903203004 | 57 | 243 | 14.0 | 20.0 | 0.00 | 0.30 | 0.30 | 93 | 1001.6 |
| 20260903201504 | 58 | 246 | 11.0 | 14.0 | 0.00 | 0.30 | 0.30 | 93 | 1001.5 |
| 20260903200003 | 58 | 261 | 8.0 | 14.0 | 0.00 | 0.30 | 0.30 | 94 | 1001.4 |
| 20260903194502 | 58 | 246 | 5.0 | 8.0 | 0.00 | 0.30 | 0.30 | 94 | 1001.3 |
| 20260903193002 | 58 | 267 | 1.0 | 4.0 | 0.01 | 0.30 | 0.30 | 94 | 1001.0 |
| 20260903191602 | 58 | 271 | 2.0 | 6.0 | 0.02 | 0.30 | 0.30 | 94 | 1000.8 |
| 20260903190059 | 58 | 291 | 0.0 | 0.0 | 0.02 | 0.30 | 0.30 | 94 | 1000.7 |
| 20260903184600 | 58 | 78 | 2.0 | 6.0 | 0.02 | 0.30 | 0.30 | 94 | 1000.6 |
| 20260903183057 | 58 | 101 | 3.0 | 8.0 | 0.02 | 0.28 | 0.28 | 94 | 1000.7 |
| 20260903181555 | 58 | 79 | 2.0 | 6.0 | 0.02 | 0.28 | 0.28 | 94 | 1000.8 |
| 20260903180053 | 57 | 90 | 3.0 | 9.0 | 0.01 | 0.28 | 0.28 | 93 | 1000.8 |
| 20260903174552 | 57 | 111 | 3.0 | 9.0 | 0.01 | 0.28 | 0.28 | 93 | 1000.8 |
| 20260903173050 | 56 | 74 | 1.0 | 6.0 | 0.01 | 0.27 | 0.27 | 93 | 1001.0 |
| 20260903171553 | 56 | 18 | 1.0 | 9.0 | 0.01 | 0.27 | 0.27 | 93 | 1001.4 |
| 20260903170045 | 56 | 51 | 0.0 | 4.0 | 0.02 | 0.27 | 0.27 | 93 | 1001.4 |
| 20260903164543 | 56 | 56 | 1.0 | 5.0 | 0.04 | 0.27 | 0.27 | 92 | 1001.7 |
| 20260903163043 | 56 | 59 | 0.0 | 4.0 | 0.03 | 0.26 | 0.26 | 92 | 1001.6 |
| 20260903161544 | 56 | 75 | 1.0 | 4.0 | 0.03 | 0.26 | 0.26 | 91 | 1001.8 |
| 20260903160040 | 56 | 62 | 0.0 | 4.0 | 0.02 | 0.24 | 0.24 | 91 | 1001.9 |
| 20260903154540 | 56 | 42 | 0.0 | 4.0 | 0.01 | 0.23 | 0.23 | 90 | 1002.1 |
| 20260903153038 | 56 | 355 | 0.0 | 4.0 | 0.01 | 0.23 | 0.23 | 91 | 1002.1 |
| 20260903151536 | 56 | 65 | 0.0 | 2.0 | 0.02 | 0.23 | 0.23 | 91 | 1002.3 |
| 20260903150044 | 56 | 102 | 0.0 | 0.0 | 0.02 | 0.22 | 0.22 | 91 | 1002.6 |
| 20260903144540 | 55 | 88 | 0.0 | 2.0 | 0.02 | 0.22 | 0.22 | 90 | 1002.7 |
| 20260903143039 | 55 | 11 | 1.0 | 3.0 | 0.02 | 0.22 | 0.22 | 90 | 1002.9 |
| 20260903141534 | 55 | 67 | 1.0 | 4.0 | 0.01 | 0.21 | 0.21 | 90 | 1003.1 |
| 20260903140027 | 55 | 100 | 0.0 | 7.0 | 0.00 | 0.20 | 0.20 | 90 | 1003.1 |
| 20260903134540 | 54 | 98 | 1.0 | 4.0 | 0.00 | 0.20 | 0.20 | 90 | 1003.3 |
| 20260903133026 | 54 | 82 | 0.0 | 5.0 | 0.00 | 0.20 | 0.20 | 90 | 1003.5 |
| 20260903131524 | 54 | 28 | 1.0 | 4.0 | 0.00 | 0.20 | 0.20 | 90 | 1003.2 |
| 20260903130020 | 53 | 89 | 2.0 | 6.0 | 0.00 | 0.20 | 0.20 | 90 | 1003.7 |
| 20260903124519 | 53 | 75 | 1.0 | 4.0 | 0.00 | 0.20 | 0.20 | 90 | 1003.9 |
| 20260903123024 | 53 | 51 | 3.0 | 8.0 | 0.02 | 0.20 | 0.20 | 89 | 1004.0 |
| 20260903121523 | 53 | 95 | 3.0 | 7.0 | 0.02 | 0.20 | 0.20 | 89 | 1004.0 |
| 20260903120015 | 53 | 57 | 2.0 | 8.0 | 0.02 | 0.20 | 0.20 | 88 | 1004.1 |
| 20260903114514 | 53 | 56 | 1.0 | 6.0 | 0.02 | 0.20 | 0.20 | 88 | 1004.3 |
| 20260903113011 | 52 | 111 | 1.0 | 4.0 | 0.01 | 0.19 | 0.19 | 88 | 1004.5 |
| 20260903111508 | 52 | 28 | 1.0 | 7.0 | 0.03 | 0.19 | 0.19 | 87 | 1004.8 |
| 20260903110007 | 52 | 105 | 1.0 | 4.0 | 0.06 | 0.19 | 0.19 | 88 | 1004.9 |
| 20260903104506 | 52 | 101 | 1.0 | 5.0 | 0.10 | 0.19 | 0.19 | 88 | 1005.0 |
| 20260903103010 | 52 | 32 | 1.0 | 4.0 | 0.13 | 0.18 | 0.18 | 88 | 1005.0 |
| 20260903101507 | 52 | 92 | 0.0 | 3.0 | 0.12 | 0.16 | 0.16 | 87 | 1005.2 |
| 20260903100001 | 52 | 49 | 0.0 | 2.0 | 0.09 | 0.13 | 0.13 | 87 | 1005.4 |
| 20260903094608 | 52 | 80 | 0.0 | 2.0 | 0.07 | 0.09 | 0.09 | 86 | 1005.6 |
| 20260903093104 | 53 | 32 | 0.0 | 3.0 | 0.06 | 0.06 | 0.06 | 85 | 1005.7 |
| 20260903091601 | 53 | 41 | 0.0 | 3.0 | 0.04 | 0.04 | 0.04 | 84 | 1005.9 |
| 20260903090053 | 53 | 37 | 0.0 | 3.0 | 0.03 | 0.03 | 0.03 | 83 | 1005.9 |
| 20260903084553 | 53 | 34 | 0.0 | 4.0 | 0.02 | 0.02 | 0.02 | 81 | 1006.0 |
| 20260903083052 | 53 | 75 | 1.0 | 6.0 | 0.00 | 0.00 | 0.00 | 79 | 1006.0 |
| 20260903081554 | 54 | 69 | 2.0 | 6.0 | 0.00 | 0.00 | 0.00 | 78 | 1006.1 |
| 20260903080047 | 54 | 65 | 3.0 | 9.0 | 0.00 | 0.00 | 0.00 | 77 | 1006.3 |
| 20260903074547 | 54 | 51 | 2.0 | 8.0 | 0.00 | 0.00 | 0.00 | 77 | 1006.5 |
| 20260903073057 | 53 | 86 | 3.0 | 7.0 | 0.00 | 0.00 | 0.00 | 77 | 1006.7 |
| 20260903071544 | 53 | 71 | 1.0 | 8.0 | 0.00 | 0.00 | 0.00 | 77 | 1006.7 |
| 20260903070041 | 53 | 63 | 3.0 | 8.0 | 0.00 | 0.00 | 0.00 | 77 | 1006.9 |
| 20260903064539 | 53 | 80 | 2.0 | 8.0 | 0.00 | 0.00 | 0.00 | 77 | 1007.1 |
| 20260903063038 | 53 | 67 | 3.0 | 10.0 | 0.00 | 0.00 | 0.00 | 77 | 1007.2 |
| 20260903061537 | 53 | 107 | 2.0 | 8.0 | 0.00 | 0.00 | 0.00 | 77 | 1007.5 |
| 20260903060134 | 53 | 82 | 3.0 | 9.0 | 0.00 | 0.00 | 0.00 | 77 | 1007.6 |
| 20260903054531 | 53 | 63 | 4.0 | 10.0 | 0.00 | 0.06 | 0.00 | 77 | 1007.9 |
| 20260903053029 | 53 | 84 | 2.0 | 10.0 | 0.00 | 0.06 | 0.00 | 76 | 1008.2 |